Theta_e
354 352 354 341 326 324 315 317 325 323 324 330 331 326 324 328 324 318 344 345 348 351 356 359 363 363 362 362 361 362 362 362 362 362 363 362 362 363 362 362 361 362 362 362 362 361 361 360 360
352 349 343 333 320 314 315 322 321 325 328 332 330 328 326 325 335 337 340 347 350 352 355 357 363 363 362 362 361 361 361 362 362 362 363 363 362 362 362 362 360 360 361 362 361 362 361 360 361
351 350 334 326 320 312 315 322 324 327 330 327 327 331 328 327 336 340 344 349 351 351 355 357 358 361 362 362 362 361 361 362 363 364 363 362 362 362 362 361 362 360 363 362 362 362 359 360 359
349 339 333 321 315 319 320 325 327 325 328 330 330 326 334 340 338 342 347 351 351 352 355 357 359 358 360 361 361 362 361 360 361 361 363 362 361 361 361 361 362 363 361 360 359 359 358 357 355
340 330 320 317 315 319 323 327 328 325 326 327 328 325 328 339 344 346 348 350 350 353 355 357 357 354 355 360 360 359 361 360 360 362 362 362 362 362 360 362 361 361 361 360 360 358 355 354 355
329 329 316 313 315 320 324 330 328 326 327 327 327 327 330 343 343 344 347 348 349 351 355 355 352 356 357 355 356 357 359 360 359 360 361 360 360 360 361 362 361 362 360 360 358 356 354 354 357
325 323 315 314 315 320 323 331 326 324 324 325 330 324 332 339 345 345 346 347 347 350 352 351 349 350 354 355 354 358 358 358 360 361 362 361 362 362 362 362 362 360 361 359 357 356 356 356 356
330 325 315 316 315 318 326 327 329 324 325 333 333 324 327 338 346 346 348 348 348 349 350 351 348 349 348 349 352 356 357 359 358 360 360 362 363 363 362 363 361 360 360 358 357 357 357 359 360
334 320 315 314 316 320 328 324 329 331 327 330 332 332 336 344 345 344 343 344 345 346 349 351 348 348 348 348 352 349 351 356 357 359 361 359 360 361 360 361 360 359 357 356 357 358 360 361 361
326 320 317 324 324 322 326 327 326 324 326 327 330 336 340 341 342 340 339 339 340 343 346 348 349 347 348 350 353 342 347 350 350 356 353 357 357 359 357 357 357 356 357 358 358 357 357 355 353
327 320 326 325 327 326 325 327 331 323 322 326 328 332 337 339 339 338 339 339 339 342 343 347 348 350 350 352 347 349 355 349 350 350 351 353 355 357 355 357 358 358 353 352 351 356 358 356 354
322 328 327 328 329 326 325 328 326 326 326 330 334 335 336 336 336 336 336 338 339 341 343 344 346 349 347 349 346 350 349 350 349 351 355 354 354 355 356 355 356 354 352 354 357 355 357 360 358
324 327 328 329 329 328 329 327 327 326 331 333 335 335 334 335 335 337 337 337 337 338 342 342 346 348 346 343 345 349 348 349 352 354 356 356 354 355 356 354 353 351 351 355 356 354 358 358 353
327 327 326 327 327 327 324 325 327 328 332 332 333 333 334 334 335 335 335 334 335 339 340 341 343 347 346 343 344 347 349 350 352 354 356 356 357 357 355 352 349 352 352 353 354 358 360 354 351
328 321 324 324 324 324 326 319 320 329 331 329 330 332 334 334 336 335 336 335 336 341 341 337 338 344 344 347 347 346 348 349 351 354 356 357 357 356 355 352 350 351 354 356 361 359 362 358 354
320 321 315 321 322 325 323 311 323 329 329 327 329 331 332 334 335 337 337 337 336 340 340 337 337 339 344 343 349 348 350 355 355 355 356 356 356 356 355 353 350 355 360 362 361 355 349 351 357
318 311 312 316 323 322 319 313 321 329 327 327 329 330 331 333 335 336 337 338 336 339 341 340 340 339 342 343 349 350 347 352 353 355 355 354 355 355 354 350 355 359 359 363 360 360 358 357 358
306 309 312 314 321 321 317 316 322 327 328 326 329 330 331 332 333 336 336 338 338 337 340 341 340 339 343 346 349 349 348 348 353 354 354 355 354 352 349 349 361 360 358 359 357 359 360 360 356
312 312 311 316 323 319 318 319 321 325 326 326 327 329 330 332 336 338 337 338 338 336 336 337 338 340 342 344 345 348 347 349 351 355 354 356 354 351 354 353 362 360 360 360 359 359 356 356 357
312 310 310 318 322 320 319 318 323 324 325 326 327 328 330 331 334 336 337 337 337 337 337 338 338 339 341 346 349 351 350 351 352 353 355 357 354 352 356 360 360 362 358 360 360 360 355 357 358
308 308 309 311 320 322 318 316 319 324 326 327 328 330 331 332 332 335 336 337 339 338 338 338 340 341 341 344 349 350 350 351 349 351 353 354 355 353 355 357 359 361 361 356 359 360 358 353 358
304 314 313 316 314 310 317 306 315 318 322 324 326 328 329 331 333 335 336 337 339 340 342 341 341 342 343 347 348 350 345 343 347 350 354 354 356 355 357 359 359 361 359 359 356 360 359 362 352
308 318 317 317 315 312 312 309 314 317 316 322 325 327 329 332 333 334 335 338 340 342 343 344 345 345 347 348 352 349 347 348 351 352 354 355 357 358 357 360 360 361 358 360 360 357 363 365 361
321 319 317 315 313 305 307 309 308 314 318 321 326 329 329 331 333 335 337 338 336 342 343 344 346 347 349 349 350 350 350 350 348 349 350 350 351 351 357 359 361 362 360 361 359 359 361 364 361
318 312 304 302 304 301 309 308 311 317 320 322 324 328 330 332 333 334 335 337 338 340 341 344 346 346 349 348 349 349 351 352 351 352 350 353 350 351 354 359 360 359 362 361 361 361 361 362 363
312 309 301 293 296 301 310 306 311 320 323 325 326 327 331 331 334 334 336 338 339 341 343 344 345 346 348 348 350 351 352 349 349 351 350 351 351 352 358 356 359 361 361 360 362 358 359 362 360
307 306 309 302 304 303 307 311 315 321 321 323 323 325 328 330 333 334 337 340 341 341 344 345 346 346 346 347 349 351 351 351 350 353 353 350 355 353 357 358 359 360 361 361 362 358 360 362 361
309 312 302 304 296 295 302 306 307 314 320 322 323 325 329 331 333 335 337 339 342 342 344 346 347 346 346 347 348 349 351 352 352 354 353 353 354 355 355 356 357 359 360 361 361 360 360 361 359
304 304 304 304 303 297 297 302 316 319 322 323 325 328 330 332 334 336 337 339 342 344 344 346 347 346 347 348 348 349 349 350 352 352 353 354 354 356 355 355 355 358 358 360 361 360 359 358 359
308 306 306 300 300 303 303 303 315 320 321 326 326 328 331 334 335 336 338 340 341 342 344 345 347 346 348 350 350 350 351 351 349 350 352 355 354 356 356 356 356 356 357 358 360 358 357 358 357
Wind_Speed
9 6 2 1 2 1 3 4 2 5 3 2 3 1 3 3 1 1 3 3 7 11 9 8 9 11 11 10 9 10 11 11 10 10 11 11 11 10 10 10 9 11 12 11 12 10 11 11 10
8 4 1 1 0 3 4 2 4 4 6 10 7 5 3 3 2 5 9 5 5 8 8 6 8 10 10 12 10 9 10 10 10 9 10 11 11 11 10 11 10 12 10 10 12 10 10 10 9
6 1 1 1 1 2 3 2 9 10 8 2 4 5 2 2 1 11 4 11 8 6 5 5 9 9 11 11 10 9 9 10 10 10 10 10 11 10 13 11 12 11 13 11 11 10 9 8 6
2 1 2 0 5 4 2 3 7 10 5 3 7 7 4 6 9 4 12 11 10 7 4 4 7 7 9 10 11 11 8 7 9 10 11 11 10 11 13 11 12 11 12 10 10 9 7 5 3
1 0 2 3 2 1 1 4 6 4 3 4 1 4 3 2 3 10 12 10 10 8 5 3 7 2 3 7 8 9 14 10 9 9 9 10 11 12 12 13 12 11 11 10 8 7 4 2 1
0 1 1 4 2 1 0 9 4 5 3 4 5 5 3 2 7 11 10 9 8 8 8 8 10 11 13 4 6 6 8 8 8 11 9 9 10 11 14 13 12 11 10 9 6 4 2 3 4
2 1 1 3 2 5 3 8 3 5 4 3 7 4 3 6 8 11 9 7 7 7 8 8 7 7 9 11 3 6 7 7 9 11 11 10 12 11 12 11 11 9 9 7 3 1 2 3 3
2 0 3 2 3 5 4 2 6 4 5 8 2 5 7 11 10 9 10 8 7 7 7 7 7 4 2 4 3 7 10 8 9 10 10 9 11 12 13 9 7 7 6 3 1 1 2 3 4
1 0 0 1 1 5 4 4 2 2 9 4 3 4 7 16 13 12 10 8 7 6 7 8 7 6 5 2 3 7 12 10 6 6 9 7 4 6 9 7 6 5 3 1 1 2 4 4 5
3 2 3 1 2 1 4 4 3 5 5 4 7 10 15 15 14 13 11 9 9 8 8 8 10 10 10 8 7 8 3 4 2 2 3 4 5 5 6 5 1 2 1 1 3 4 6 6 3
1 2 4 1 5 3 3 4 3 5 3 5 10 16 15 14 13 11 10 9 9 8 6 7 7 6 7 6 3 2 3 2 2 2 1 4 3 3 3 2 2 1 1 3 2 2 2 5 5
2 0 3 2 2 2 1 4 3 7 2 7 14 16 14 14 12 11 10 9 9 10 9 8 8 6 6 4 3 6 5 4 3 3 3 3 3 2 2 2 1 1 1 2 3 3 4 5 4
2 1 3 4 2 4 1 2 3 6 5 12 15 14 13 11 9 7 6 6 7 9 9 9 8 6 6 5 4 6 5 4 4 3 3 2 2 2 2 2 1 0 1 2 2 4 4 4 4
2 4 2 3 4 5 4 2 2 3 11 12 14 13 10 10 9 6 6 6 7 9 10 10 8 7 7 4 4 4 4 5 4 3 3 3 2 1 3 3 1 1 1 2 3 4 3 3 3
4 2 1 4 5 2 6 2 2 3 10 13 12 10 10 9 8 9 7 6 8 10 11 6 6 7 5 5 5 4 4 4 3 2 2 3 3 3 3 2 1 0 0 4 3 3 1 2 3
2 1 3 3 1 4 5 5 8 4 11 12 12 9 9 10 10 8 8 6 8 9 11 8 6 8 7 4 4 3 3 2 3 2 2 4 4 3 3 2 1 0 1 2 1 2 1 2 2
0 4 3 2 5 1 1 4 16 7 10 12 12 11 10 9 9 9 10 8 9 10 11 10 9 7 6 4 2 3 2 3 3 3 2 3 3 3 2 2 1 1 1 2 2 1 2 3 3
5 5 3 5 6 6 6 12 8 9 13 13 12 12 11 11 13 11 11 10 9 9 10 10 7 5 6 5 4 2 3 3 3 3 3 4 3 3 3 2 1 0 0 1 2 3 2 2 4
6 4 7 3 6 10 12 13 12 12 15 14 14 13 14 15 10 10 11 11 11 10 9 9 8 7 5 5 4 3 4 3 2 2 4 5 5 5 3 1 1 1 0 2 2 3 4 1 3
7 9 8 1 4 10 6 15 15 14 19 19 17 16 16 14 12 12 13 13 14 14 13 11 11 10 7 5 3 1 3 2 1 3 4 5 6 6 4 2 0 1 0 2 2 3 3 1 3
8 9 4 5 5 8 6 10 12 13 18 17 17 16 15 16 16 14 14 16 14 14 15 14 13 12 10 8 4 2 2 2 4 4 4 6 7 7 5 4 3 1 2 3 3 2 3 3 1
4 2 5 6 4 3 2 6 3 6 13 17 20 17 17 16 16 15 16 16 17 15 13 14 13 13 11 11 8 8 6 5 4 4 2 4 6 6 6 6 5 3 2 3 3 2 3 2 3
4 2 7 5 3 4 4 5 4 2 9 18 21 20 18 18 18 18 18 18 17 14 14 14 13 13 12 12 11 9 8 4 3 3 4 5 6 6 6 7 6 5 4 3 3 4 2 2 2
9 9 8 4 1 4 2 5 5 4 4 5 16 20 20 20 19 17 16 14 11 14 14 13 14 14 13 12 13 12 11 8 5 5 5 5 5 4 5 7 6 5 5 4 3 3 4 4 3
4 5 1 3 3 3 1 5 10 5 8 8 11 19 21 19 17 16 17 17 15 16 16 14 14 15 15 15 14 13 13 11 9 7 6 6 6 6 7 7 7 7 6 5 4 3 4 4 3
10 6 4 5 4 4 4 6 3 3 6 10 10 10 14 18 17 17 19 18 18 18 17 16 15 15 15 14 14 13 12 9 9 9 6 5 6 6 5 8 8 8 7 6 4 4 4 5 5
7 9 2 3 1 4 2 6 9 4 1 2 3 6 11 15 17 18 18 17 16 16 17 17 15 13 14 15 12 12 12 12 10 11 8 7 6 4 4 6 8 9 8 7 6 5 6 6 5
6 10 5 4 5 7 4 6 8 2 5 3 4 7 10 12 14 14 14 15 14 15 15 15 15 16 15 13 13 11 12 13 12 10 10 9 7 6 6 7 9 9 8 8 8 6 6 5 4
6 5 2 2 5 7 6 5 5 7 6 9 8 7 9 12 14 13 12 11 12 12 13 14 13 11 12 13 12 12 11 12 12 11 11 11 10 9 9 8 8 9 9 9 9 9 7 7 7
3 6 7 6 5 1 3 5 3 6 5 8 10 10 9 10 10 11 11 11 12 13 13 14 12 13 13 11 12 13 12 11 12 13 14 12 12 11 10 8 7 8 8 7 9 10 9 9 9
Wind_Direction
150 140 154 181 204 78 62 51 357 110 101 84 101 204 162 42 167 184 142 124 145 145 147 159 165 161 151 145 140 136 138 140 139 137 132 130 133 130 124 117 112 105 109 112 108 109 104 104 98
144 142 69 106 102 120 87 54 81 53 112 123 104 106 84 102 70 115 148 141 134 135 145 158 165 164 160 147 152 150 149 146 141 145 130 128 126 133 129 116 112 104 110 106 112 108 101 93 94
151 322 247 96 96 76 91 62 134 128 146 178 113 58 69 58 71 145 120 139 139 129 129 161 168 160 166 162 156 162 158 157 158 143 136 133 134 137 131 115 111 115 110 107 107 102 97 98 110
185 167 112 133 117 89 32 178 137 127 127 96 117 89 98 12 140 146 141 141 135 121 124 173 162 170 168 169 167 176 155 171 153 152 142 142 138 132 126 135 116 117 110 110 104 98 97 109 126
50 298 83 99 93 37 310 178 170 117 94 109 113 114 82 76 90 136 142 142 136 125 128 105 76 22 197 200 186 165 152 157 158 143 134 141 141 130 129 115 127 120 112 105 94 88 82 69 9
200 327 152 158 142 328 135 148 133 89 92 128 107 112 104 99 139 146 142 136 129 123 107 99 78 40 353 287 180 174 152 136 144 122 123 125 133 125 125 136 132 128 115 102 95 88 67 16 7
348 22 104 124 50 74 128 153 139 120 138 91 121 102 107 152 137 145 140 135 134 127 118 115 92 55 2 338 231 161 118 123 110 109 117 133 131 130 123 125 123 126 113 113 117 95 24 2 345
89 52 155 169 128 94 113 118 130 135 93 121 118 164 169 163 148 143 136 130 129 125 120 123 114 105 62 302 293 81 54 70 98 104 120 130 130 123 125 127 133 124 113 136 115 349 349 328 325
148 242 75 22 193 120 63 143 99 32 126 109 16 153 133 146 150 145 139 137 142 130 124 127 142 165 166 242 177 94 77 19 42 85 97 93 82 116 128 94 131 123 121 204 279 308 302 305 275
21 336 27 2 221 141 88 71 151 162 149 98 88 108 131 150 162 161 163 163 162 155 142 142 150 173 189 197 144 128 197 141 273 87 89 104 103 110 111 120 148 111 105 294 307 318 315 282 301
94 314 345 18 296 258 338 44 330 164 202 176 164 149 150 163 173 175 173 175 167 158 163 158 147 154 145 123 104 115 126 146 169 99 123 93 113 110 97 135 158 157 224 253 275 290 296 304 310
272 54 333 346 281 276 212 308 134 203 8 160 150 155 156 173 177 180 176 171 171 173 173 163 161 148 113 109 114 150 148 169 149 182 150 133 141 125 128 147 151 177 246 287 320 324 332 314 322
298 4 15 357 125 51 9 10 333 186 98 128 139 158 166 180 179 182 183 174 175 183 171 165 165 138 132 115 156 147 158 162 164 170 151 172 187 156 158 146 173 139 229 257 278 320 349 346 353
24 77 11 349 360 46 19 284 235 125 140 137 154 167 172 187 180 190 195 181 177 176 173 165 167 147 147 143 161 150 161 160 176 175 184 199 190 159 148 149 148 86 198 267 312 313 289 9 4
132 324 118 49 334 10 333 175 23 152 168 154 170 176 181 196 183 213 210 185 178 183 167 165 157 167 168 168 155 164 164 152 168 199 166 137 138 139 144 151 198 317 114 297 298 311 308 349 13
313 284 341 96 291 7 331 314 313 181 176 173 180 187 196 203 205 212 218 193 169 184 181 167 186 178 169 154 151 155 148 182 225 219 169 131 129 158 167 175 168 87 31 339 22 16 11 330 335
215 322 284 286 188 97 340 271 265 203 200 188 193 194 206 208 216 211 217 198 174 190 188 188 186 179 162 175 141 178 182 220 238 230 209 163 180 161 209 120 102 43 77 50 14 340 322 349 347
325 303 251 260 186 188 216 248 253 206 212 209 202 206 211 218 214 208 208 202 182 187 195 191 196 173 180 172 171 187 214 216 219 215 206 190 161 150 163 103 359 197 351 84 25 328 356 338 338
288 265 275 229 188 196 219 253 260 219 208 220 208 213 216 224 212 203 202 205 184 189 195 200 191 196 182 186 193 187 206 213 225 205 168 171 159 158 141 159 274 182 48 37 356 342 336 355 347
262 282 269 276 175 210 224 250 249 227 211 213 215 215 220 222 207 202 197 202 195 191 199 195 202 189 202 203 188 225 179 180 205 204 202 204 168 171 173 200 291 76 52 349 334 359 332 359 351
279 261 261 293 160 222 290 270 232 234 218 213 218 226 224 219 212 203 199 202 200 198 198 201 201 202 193 205 210 181 168 173 185 198 202 192 179 182 192 205 258 295 313 324 326 345 331 349 347
299 288 254 174 210 313 267 305 260 212 221 218 217 218 222 212 214 206 201 205 203 206 201 203 205 201 204 188 204 210 219 213 203 184 187 191 192 192 197 197 203 202 262 290 303 300 320 290 309
345 19 136 163 185 279 182 254 269 200 218 224 220 223 217 208 207 205 204 204 207 201 202 202 202 201 206 194 200 205 219 231 201 190 176 191 185 200 197 205 201 194 215 225 262 284 277 262 283
145 107 92 90 180 259 46 263 268 214 206 225 219 216 213 209 207 207 203 195 200 199 200 199 197 205 199 202 200 203 206 218 220 200 192 190 194 208 215 216 207 216 212 220 241 258 238 244 240
208 187 214 218 204 276 2 227 268 260 245 244 221 217 213 207 200 199 198 197 198 199 204 203 201 209 202 201 202 206 212 207 222 224 212 196 198 210 220 224 218 217 212 217 225 227 235 247 240
198 238 256 273 259 334 145 240 261 260 283 281 249 229 215 206 197 197 197 198 199 199 199 200 199 211 202 205 209 201 208 212 215 224 234 234 222 219 205 214 224 224 216 215 220 228 238 244 247
160 210 307 186 81 252 305 271 261 260 353 274 158 179 195 202 191 196 199 201 200 201 203 203 201 211 206 205 208 209 204 213 219 225 217 228 237 227 218 216 222 224 216 208 210 236 232 233 241
223 139 178 216 216 252 220 275 287 330 157 171 200 188 185 190 196 197 199 201 202 202 203 204 203 206 210 209 207 210 208 210 218 220 222 220 221 225 248 243 233 227 222 218 212 218 225 235 237
163 209 194 265 283 260 260 252 218 252 209 182 197 201 188 191 196 199 200 205 202 196 198 202 204 208 204 207 210 214 215 214 216 224 226 224 224 218 232 234 252 248 228 215 216 222 222 218 230
223 217 212 248 217 260 310 263 204 245 237 214 186 190 192 206 202 200 197 190 194 193 192 199 199 201 210 209 209 214 219 219 223 229 227 223 228 226 217 226 236 256 254 256 228 218 227 222 233